Showing default

LARES, 38077

Orbit data source: Space-Track

LARES, 38077 is a payload satellite owned by ASI (IT) in LEO that was launched on Mon, 13 Feb 2012 UTC via a VEGA launch vehicle from the French Guiana (FRGUI). Payloads include a variety of satellites, spacecraft, and rockets equipped with specific instruments for various scientific and technological missions. These include communications satellites like Starlink; space stations such as the ISS; scientific satellites like the Hubble; Earth observation satellites from companies like Planet Labs, Umbra, and HawkEye 360; GPS; miniature CubeSats for education and research; and military/defense satellites.

Loading next visibility...
LARES details
Identifier
38077, 2012-006A
Orbit
LEO
Last TLE update8 hours ago
Origin
Flag of ITASI (IT)
ManufacturerCGS
MissionOperational Civil Technology
Bus & MotorLARES, Unknown motor
Mass400 kg wet, 400 kg dry
Launch date (UTC)
2012-02-13 (13 years ago)
Launch vehicle
VEGA
Launch site
French Guiana (FRGUI)
Object type
Payload
Rocket body
Debris
Shape & HBRSphere, 0.4 m
Radar Cross Section0.126 m², Small (<0.1 m²)

Expand to show TLE details & history

TLE from 8 hours ago
0 LARES
1 38077U 12006A   25025.50848676 -.00000035  00000-0  23732-4 0  9992
2 38077  69.4903  79.4112 0008449 177.8809 182.2255 12.54931823593478
Epoch: 2025-01-25T12:12Z
Definitive object data (Epoch: 2025-01-25T12:12:13.256Z)
Latitude0.00003°
Longitude131.29969°
Altitude1,452.66 km
Speed7.133 km/s
True Right ascension05h 17m 38s
True Declination0° 00' 00"
Sunlit
Object was in full shadow at TLE epoch
Visualization TLE readout
Latitude24.54526°
Longitude-59.09019°
Altitude1,440.103 km
Speed7.147 km/s
Apparent Right ascension14h 07m 14s
Apparent Declination-5° 58' 60"
Sunlit
Object is in daylight
Visualization observer readout
Local Sidereal Time22:01:25
Azimuth284.445° WNW
Elevation-25.559°
Doppler factor1
Orbital elements
Apogee altitude1,448.768 km
Perigee altitude1,435.553 km
Semi-major axis7,820.298 km
Eccentricity0.0008449
Inclination69.4903°
RAAN79.4112°
Arg. of periapsis177.8809°
True anomaly182.22174°
Mean anomaly182.2255°
Eccentric anomaly182.22362°
Mean motion3.1384 °/min
BSTAR0.000023732
Orbital period114.71 mins
Loading maneuver chart data...
Loading historical data...
Loading historical data...
Loading historical data...
Loading historical data...
Loading historical data...
Loading historical data...
Loading historical data...

LARES Visibility forecast

Observer location: undefined°, undefined

Span
Click to sort rows by Start time (UTC) header in descending order
Start Az.
Max El. time (UTC)
Max El. Az.
Max El.
End time (UTC)
End Az.
13 mins2025-01-26 03:36:17.297Z155.342° SSE2025-01-26 03:42:17.297Z105.802° ESE27.456°2025-01-26 03:49:17.297Z46.237° ENE
15 mins2025-01-26 05:33:17.297Z225.413° WSW2025-01-26 05:40:17.297Z309.151° NW40.535°2025-01-26 05:48:17.297Z19.044° NNE
8 mins2025-01-26 07:36:17.297Z297.556° NW2025-01-26 07:40:17.297Z327.634° NNW15.228°2025-01-26 07:44:17.297Z356.725° N
7 mins2025-01-26 11:43:17.297Z10.792° NNE2025-01-26 11:46:17.297Z32.881° NE13.761°2025-01-26 11:50:17.297Z61.432° ENE
15 mins2025-01-26 13:39:17.297Z345.194° N2025-01-26 13:46:17.297Z53.671° ENE38.348°2025-01-26 13:54:17.297Z132.106° SE
13 mins2025-01-26 15:38:17.297Z311.565° NW2025-01-26 15:44:17.297Z252.903° W30.364°2025-01-26 15:51:17.297Z196.049° SSW
|